KUIPER-00613

导读

KUIPER-00613(NORAD编号69293)是美国亚马逊公司柯伊伯(Project Kuiper)低轨互联网星座的组网卫星,该星座目标部署超3200颗低轨卫星,为全球偏远区域、海上及通信欠发达地区提供高带宽、低延迟的互联网接入服务,同时支持政企通信、远程教育等场景。作为批量组网星之一,该卫星运行于高度约630公里、倾角51.9度的近圆低地轨道,轨道周期约97分钟,目前处于在轨运行状态,是亚马逊推进全球卫星互联网覆盖部署的组成节点。

Basic Information
目录编号:
69293
目录名称:
KUIPER-00613
国际标识:
2026-118AC
轨道中心:
EARTH
卫星名称:
KUIPER-00613
卫星全名:
KUIPER-00613
卫星状态:
在轨 (已飞行106 天)
发射日期:
2026-05-29 UTC
国别 :
美国 (US)
星等 :
--
This satellite is enrolled in the Space Conjunction Data Service (SCDS) and the current flight risk assessment level is: No High Risk
Orbit Information
数据来源 国际轨道数据 AOE轨道数据
星历时间 2026-09-11T22:59:43+0800
14小时前
查看轨道信息
2026-09-10T17:00:00+0800
1天前
查看轨道信息
半长轴 7007.699km 7007.686km
偏心率 0.0000425 0.0000419
轨道倾角 51.902° 51.901°
近地点辐角 98.980° 90.131°
升交点赤经 20.938° 26.465°
平近点角 261.121° 87.309°
近地点 629.264km 629.255km
远地点 629.86km 629.843km
周期 97.302分钟 97.302分钟
每日圈数 14.799248 14.799288
Detailed Information
使用方式:
暂无
2D Orbit Map
3D Orbit Map
Orbit Altitude Analysis Chart
Orbit Inclination Analysis Chart
Orbit Comprehensive Analysis Chart
View Comprehensive Chart
Miss Distance Evolution Trend with All Objects
Collision Probability Evolution Trend with All Objects